Home > Weather > Kohtla-Järve > Past weeks

Flag for Estonia Past Weather in Kohtla-Järve, Estonia — Yesterday and Last 2 Weeks

Now
66 °F

Rain showers. Overcast.


Feels Like: 66 °F
Forecast: 60 / 67 °F
Wind: 3 mph from Southwest

Location: Johvi

Current Time: Aug 25, 2016 at 7:58:43 PM

Latest Report: Aug 25, 2016 at 7:00 PM


Visibility: 25 mi

Pressure: 30.13 "Hg

Humidity: 81%

Dew Point: 60 °F

Location of Kohtla-JärveLocation

Past Weather in Kohtla-Järve — Graph

°F

Kohtla-Järve Temperature Yesterday

Maximum temperature yesterday: 67 °F (at 1:00 PM)
Minimum temperature yesterday: 53 °F (at 11:00 PM)
Average temperature yesterday: 60 °F

High & Low Weather Summary for the Past Weeks

 TemperatureHumidityPressure
High75 °F (Aug 22, 4:00 PM)99% (Aug 25, 4:00 AM)30.24 "Hg (Aug 25, 4:00 AM)
Low45 °F (Aug 12, 5:00 AM)51% (Aug 20, 1:00 PM)29.61 "Hg (Aug 16, 9:00 PM)
Average59 °F86%29.97 "Hg
* Reported Aug 10 7:00 PM — Aug 25 6:00 PM, Kohtla-Järve, Weather by CustomWeather, © 2016

Note: Actual official high and low records may vary slightly from our data, if they occured in-between our weather recording intervals... More about our weather records

Advertising

Kohtla-Järve Weather History for the Previous 24 Hours

Scroll right to see more
 ConditionsComfort  
Time TempWeatherWind HumidityBarometerVisibility
6:00 PM
Thu, Aug 25
69 °FOvercast.7 mph70%30.14 "Hg28 mi
5:00 PM71 °FOvercast.8 mph65%30.15 "Hg22 mi
4:00 PM68 °FOvercast.6 mph68%30.16 "Hg28 mi
3:00 PM71 °FOvercast.7 mph58%30.17 "Hg22 mi
2:00 PM67 °FOvercast.5 mph67%30.19 "Hg28 mi
1:00 PM66 °FOvercast.6 mph67%30.20 "Hg22 mi
12:00 PM65 °FOvercast.6 mph71%30.21 "Hg25 mi
11:00 AM62 °FOvercast.5 mph76%30.21 "Hg22 mi
10:00 AM59 °FPassing clouds.3 mph97%30.22 "Hg19 mi
9:00 AM55 °FLow clouds.2 mph97%30.24 "Hg1 mi
8:00 AM52 °FDuststorm.2 mph98%30.23 "Hg0 mi
7:00 AM50 °FDuststorm.2 mph97%30.24 "Hg1 mi
6:00 AM47 °FScattered clouds.2 mph97%30.24 "Hg1 mi
4:00 AM48 °FDuststorm.1 mph99%30.23 "Hg0 mi
3:00 AM48 °FClear.1 mph97%30.23 "Hg1 mi
2:00 AM49 °FClear.1 mph97%30.22 "Hg0 mi
1:00 AM50 °FClear.1 mph96%30.23 "Hg1 mi
12:00 AM51 °FClear.1 mph96%30.24 "Hg1 mi
11:00 PM
Wed, Aug 24
53 °FFog.1 mph94%30.23 "Hg6 mi
10:00 PM53 °FClear.1 mph91%30.22 "Hg8 mi
9:00 PM58 °FOvercast.2 mph85%30.22 "Hg16 mi
8:00 PM59 °FOvercast.2 mph84%30.22 "Hg14 mi
7:00 PM59 °FOvercast.2 mph83%30.22 "Hg13 mi
Weather by CustomWeather, © 2016

See weather overviewHow to use our weather pages